Location: Cucq
(50.4773°N, 1.6202°E)
Time: 21:50:57
(UTC+00:00)

Helios 1B rocket - Pass Details

Date: 07 August 2020
Orbit: 575 x 583 km, 98.1° (Epoch: 22 September)

Event Time Altitude Azimuth Distance (km) Brightness Sun altitude
Rises 00:43:18 0° 14° (NNE) 2,802 7.4 -22.5°
Reaches altitude 10° 00:45:27 10° 14° (NNE) 1,898 6.2 -22.4°
Maximum altitude 00:49:34 90° 81° (E) 583 2.3 -22.3°
Enters shadow 00:49:49 79° 193° (SSW) 593 2.2 -22.3°
